Location: Lecco
(45.8500°N, 9.3830°E)
Time: 05:34:46
(UTC+01:00)

ISS - Visible Passes

Search period start: 20 January 2019 00:00
Search period end: 30 January 2019 00:00
Orbit: 404 x 410 km, 51.6° (Epoch: 20 January)

Date Brightness Start Highest point End Pass type
(mag) Time Alt. Az. Time Alt. Az. Time Alt. Az.
21 Jan -1.4 18:45:25 10° SSE 18:46:04 12° SSE 18:46:04 12° SSE visible
22 Jan -1.8 19:28:24 10° SW 19:29:55 24° SSW 19:29:55 24° SSW visible
23 Jan -2.6 18:37:29 10° SSW 18:40:18 26° SE 18:40:56 25° ESE visible
23 Jan -0.4 20:13:25 10° WSW 20:13:40 12° WSW 20:13:40 12° WSW visible
24 Jan -1.7 17:47:01 10° S 17:49:06 16° SE 17:51:11 10° E visible
24 Jan -3.2 19:21:56 10° WSW 19:24:36 55° WSW 19:24:36 55° WSW visible
25 Jan -3.6 18:30:37 10° SW 18:33:52 58° SSE 18:35:27 26° ENE visible
25 Jan -0.7 20:07:25 10° W 20:08:10 15° WNW 20:08:10 15° WNW visible
26 Jan -3.2 19:15:47 10° W 19:18:57 48° NNW 19:18:57 48° NNW visible
27 Jan -3.7 18:24:13 10° WSW 18:27:31 71° NNW 18:29:41 20° ENE visible
27 Jan -0.9 20:01:27 10° WNW 20:02:24 16° WNW 20:02:24 16° WNW visible
28 Jan -2.7 19:09:45 10° W 19:12:49 34° NNW 19:13:05 33° N visible
29 Jan -3.0 18:18:03 10° W 18:21:14 42° NNW 18:23:44 15° NE visible
29 Jan -1.1 19:55:20 10° WNW 19:56:27 17° NW 19:56:27 17° NW visible
